Regional Weather Roundup
Issued by NWS

Home | Current Version | Previous Version | Graphics & Text | Print | Product List | Glossary On
Versions: 1 2 3 4 5 6 7 8 9 10 11 12 13 14 15 16 17 18 19 20 21 22 23 24 25 26 27 28 29 30 31 32 33 34 35 36 37 38 39 40 41 42 43 44 45 46 47 48 49 50
000
ASUS43 KLOT 160506
RWRIL

ILLINOIS REGIONAL WEATHER ROUNDUP
NATIONAL WEATHER SERVICE CHICAGO/ROMEOVILLE IL
1200 AM CDT WED APR 16 2014

NOTE: "FAIR" INDICATES FEW OR NO CLOUDS BELOW 12,000 FEET WITH NO
SIGNIFICANT WEATHER AND/OR OBSTRUCTIONS TO VISIBILITY.

* THESE STATIONS ARE NOT UNDER NWS QUALITY CONTROL. THEY ALSO MAY NOT
  REPORT WEATHER SUCH AS PRECIPITATION OR FOG.

ILZ001-002-007-009-015-016-024-160600-
NORTHWEST ILLINOIS

CITY           SKY/WX    TMP DP  RH WIND       PRES   REMARKS
MOLINE         CLEAR     27  18  69 E7        30.16S WCI  19
STERLING*      CLEAR     28  23  80 SE3       30.18S
SAVANNA*       CLEAR     29  22  76 E3        30.17S
$$

ILZ003-004-008-010-011-017-018-160600-
NORTH CENTRAL ILLINOIS

CITY           SKY/WX    TMP DP  RH WIND       PRES   REMARKS
ROCKFORD       CLEAR     29  22  75 SE3       30.20S
FREEPORT*      CLEAR     26  22  85 S3        30.19S
ROCHELLE*      CLEAR     26  19  75 SE5       30.20S WCI  20
DE KALB*       CLEAR     26  20  79 S6        30.20R WCI  20
PERU*          CLEAR     33  22  64 CALM      30.19S
$$

ILZ005-006-012>014-019>023-160600-
NORTHEAST ILLINOIS

CITY           SKY/WX    TMP DP  RH WIND       PRES   REMARKS
CHICAGO-OHARE  CLEAR     30  19  63 S5        30.20R WCI  25
CHICAGO-MIDWAY CLEAR     34  21  59 S5        30.21R WCI  30
AURORA         CLEAR     29  22  75 S5        30.21R WCI  24
LANSING*       CLEAR     29  20  70 CALM      30.22R
WAUKEGAN       CLEAR     26  21  81 CALM      30.19S
DUPAGE AIRPORT CLEAR     29  21  72 S5        30.20R WCI  24
KANKAKEE*      CLEAR     30  24  78 SE5       30.22S WCI  25
WHEELING       CLEAR     31  21  66 CALM      30.21S
MORRIS*        CLEAR     32  20  60 SE6       30.21R WCI  26
ROMEOVILLE*    CLEAR     29  21  71 S7        30.21S WCI  22
NORTHERLY ISL    N/A     34  20  57 S6          N/A  WCI  29
$$

LMZ740>746-160600-
SOUTHERN LAKE MICHIGAN

STATION/POSITION SKY/WX   TEMP    WIND        PRES    VSBY  WAVE
                          AIR SEA DIR/SP/G                  HT/PER
                          (F)     (DEG/KT/KT) (MB)    (MI)  (FT/S)
WAUKEGAN HARBOR            34     190/  8/  9 1024.0S
HARRISON CRIB              36     180/  9/ 13   N/A
BURNHAM HARBOR             34     190/  3/  5   N/A
CALUMET HARBOR             33     170/  4/  5 1023.8R
MICHIGAN CITY              30     120/  7/ 10   N/A
$$

ILZ025>027-034>036-040-047-049-050-058-095>099-160600-
WEST-CENTRAL ILLINOIS

CITY           SKY/WX    TMP DP  RH WIND       PRES   REMARKS
QUINCY         PTCLDY    34  24  67 SE8       30.14F WCI  27
GALESBURG*     CLEAR     32  23  70 E5        30.16S WCI  27
MACOMB*        CLEAR     32  25  74 SE7       30.19S WCI  26
JACKSONVILLE*  CLEAR     35  22  61 SE6       30.19S WCI  30
PITTSFIELD*    CLEAR     37  24  58 SE3       30.18S
$$

ILZ028>032-037-038-041>044-048-051>054-059>061-160600-
CENTRAL ILLINOIS

CITY           SKY/WX    TMP DP  RH WIND       PRES   REMARKS
PONTIAC        CLEAR     32  27  80 SE6       30.21R WCI  26
BLOOMINGTON    CLEAR     29  19  66 S8        30.21R WCI  21
DECATUR        CLEAR     32  22  66 S9        30.21S WCI  24
PEORIA         CLEAR     35  19  52 SE5       30.19S WCI  31
LACON*         CLEAR     32  19  59 SE5       30.19R WCI  27
LINCOLN*       CLEAR     33  25  72 S3        30.22R
SPRINGFIELD    CLEAR     35  23  61 S6        30.21R WCI  30
TAYLORVILLE    CLEAR     34  25  69 SE8       30.21S WCI  27
$$

ILZ033-039-045-046-055>057-062-063-160600-
EAST-CENTRAL ILLINOIS

CITY           SKY/WX    TMP DP  RH WIND       PRES   REMARKS
CHAMPAIGN      CLEAR     31  25  78 SE8       30.22R WCI  23
RANTOUL*       CLEAR     33  27  78 CALM      30.22S
MATTOON        CLEAR     31  23  72 SE5       30.22S WCI  26
PARIS*         CLEAR     30  26  85 CALM      30.24S
$$

ILZ079-100>102-160600-
SOUTHWEST ILLINOIS

CITY           SKY/WX    TMP DP  RH WIND       PRES   REMARKS
ALTON          CLEAR     34  24  65 SE6       30.22S WCI  29
BELLEVILLE     CLEAR     36  26  68 SE6       30.22S WCI  31
CAHOKIA*       CLEAR     37  26  64 S7        30.22S WCI  32
SPARTA*        CLEAR     36  27  69 SE6       30.25R WCI  31
$$

ILZ064>066-069>071-074>076-080>082-084>086-088>090-092>094-160600-
SOUTH-CENTRAL ILLINOIS

CITY           SKY/WX    TMP DP  RH WIND       PRES   REMARKS
CARBONDALE     CLEAR     35  25  66 CALM      30.25R
CAIRO*         CLEAR     40  27  61 E5        30.26S
MARION         CLEAR     37  25  60 E3        30.26R
MT. VERNON     CLEAR     28  18  64 CALM      30.25R
CENTRALIA*       N/A     34  25  70 SE3       30.24R
SALEM*         CLEAR     37  26  64 SE5       30.24R WCI  33
METROPOLIS*    CLEAR     35  26  67 CALM      30.25S
$$

ILZ067-068-072-073-078-083-087-091-160600-
SOUTHEAST ILLINOIS

CITY           SKY/WX    TMP DP  RH WIND       PRES   REMARKS
FLORA*         CLEAR     32  28  86 CALM      30.26R
FAIRFIELD*     CLEAR     34  28  80 CALM      30.25S
HARRISBURG*    CLEAR     34  28  79 CALM      30.27S
ROBINSON*      CLEAR     32  29  88 CALM      30.27R
CARMI*         CLEAR     36  32  84 SE5       30.26S WCI  32
$$

ABBREVIATIONS USED IN REMARKS
   TC - TEMPERATURE IN CELSIUS
  WCI - WIND CHILL INDEX
   HX - HEAT INDEX
  VSB - VISIBILITY
$$




USA.gov is the U.S. government's official web portal to all federal, state and local government web resources and services.